Regional Weather Roundup
Issued by NWS

Home | Current Version | Previous Version | Graphics & Text | Print | Product List | Glossary On
Versions: 1 2 3 4 5 6 7 8 9 10 11 12 13 14 15 16 17 18 19 20 21 22 23 24 25 26 27 28 29 30 31 32 33 34 35 36 37 38 39 40 41 42 43 44 45 46 47 48 49 50
000
ASUS43 KLOT 021912
RWRIL

ILLINOIS REGIONAL WEATHER ROUNDUP
NATIONAL WEATHER SERVICE CHICAGO/ROMEOVILLE IL
200 PM CDT WED SEP 02 2015

NOTE: "FAIR" INDICATES FEW OR NO CLOUDS BELOW 12,000 FEET WITH NO
SIGNIFICANT WEATHER AND/OR OBSTRUCTIONS TO VISIBILITY.

* THESE STATIONS ARE NOT UNDER NWS QUALITY CONTROL. THEY ALSO MAY NOT
  REPORT WEATHER SUCH AS PRECIPITATION OR FOG.

ILZ001-002-007-009-015-016-024-022000-
NORTHWEST ILLINOIS

CITY           SKY/WX    TMP DP  RH WIND       PRES   REMARKS
MOLINE         CLOUDY    84  69  60 SW5       30.00F HX  88
STERLING*      PTSUNNY  N/A N/A N/A W12       29.99S
SAVANNA*       CLOUDY    84  68  58 SW8       30.00F HX  87
$$

ILZ003-004-008-010-011-017-018-022000-
NORTH CENTRAL ILLINOIS

CITY           SKY/WX    TMP DP  RH WIND       PRES   REMARKS
ROCKFORD       PTSUNNY   88  70  55 SW12      30.02F HX  93
FREEPORT*      PTSUNNY   83  70  65 SW12      30.03S HX  87
ROCHELLE*      MOSUNNY   86  71  61 SW10G17   30.02F HX  91
DE KALB*       MOSUNNY   87  72  59 SW12      30.04S HX  93
PERU*          MOSUNNY   88  64  44 S13       30.02F HX  89
$$

ILZ005-006-012>014-019>023-022000-
NORTHEAST ILLINOIS

CITY           SKY/WX    TMP DP  RH WIND       PRES   REMARKS
CHICAGO-OHARE  MOSUNNY   88  68  51 SW9       30.01S HX  91
CHICAGO-MIDWAY PTSUNNY   90  68  48 SW12      30.01S HX  94
AURORA         MOSUNNY   89  70  53 SW15      30.03S HX  94
LANSING*       PTSUNNY   88  68  52 SW13G20   30.02F HX  91
JOLIET*        MOSUNNY   90  71  53 SW9G17    30.02S HX  95
WAUKEGAN       PTSUNNY   88  70  55 S13       30.00S HX  93
DUPAGE AIRPORT MOSUNNY   88  70  55 SW13      30.01F HX  93
KANKAKEE*      PTSUNNY   90  71  54 SW10      30.04S HX  96
WHEELING       MOSUNNY   90  67  46 SW9       30.02S HX  93
MORRIS*        MOSUNNY   88  70  55 SW9G16    30.01F HX  93
ROMEOVILLE*    MOSUNNY   89  68  51 SW9       30.02F HX  92
NORTHERLY ISL    N/A     89  63  41 W12         N/A  HX  90
$$

LMZ740>746-022000-
SOUTHERN LAKE MICHIGAN

STATION/POSITION SKY/WX   TEMP    WIND        PRES    VSBY  WAVE
                          AIR SEA DIR/SP/G                  HT/PER
                          (F)     (DEG/KT/KT) (MB)    (MI)  (FT/S)
SOUTHERN BUOY              73 71  190/  6/  6 1015.9S         1
WILMETTE HARBOR            72 62  310/  6/  6   N/A           1
HARRISON CRIB              81     150/  7/ 11   N/A
BURNHAM HARBOR             89     180/  8/ 14   N/A
CALUMET HARBOR             87     180/ 10/ 13   N/A
BURNS HARBOR               86     220/  6/ 14 1017.3F
MICHIGAN CITY              81     240/  4/  5   N/A
MICHIGAN CITY 6N           83 74     CALM       N/A           0
ST. JOSEPH                 76 74  270/  2/  4   N/A           1/ 3
$$

ILZ025>027-034>036-040-047-049-050-058-095>099-022000-
WEST-CENTRAL ILLINOIS

CITY           SKY/WX    TMP DP  RH WIND       PRES   REMARKS
QUINCY         CLOUDY    88  68  51 S12       30.00F HX  91
GALESBURG*     CLOUDY    85  68  55 SW10G17   30.01F HX  88
MACOMB*        PTSUNNY   88  66  48 SW7       30.02F HX  90
JACKSONVILLE*  PTSUNNY   94  66  40 SW12G18   30.02F HX  96
PITTSFIELD*    PTSUNNY   89  66  46 SW7       30.03F HX  92
$$

ILZ028>032-037-038-041>044-048-051>054-059>061-022000-
CENTRAL ILLINOIS

CITY           SKY/WX    TMP DP  RH WIND       PRES   REMARKS
PONTIAC        MOSUNNY   90  71  53 SW8       30.04S HX  97
BLOOMINGTON    PTSUNNY   91  69  48 SW12G18   30.05F HX  95
DECATUR        MOSUNNY   90  64  42 SW15G22   30.05F HX  91
PEORIA         MOSUNNY   90  64  42 SW13      30.02F HX  91
LACON*         MOSUNNY   88  69  53 S10       30.01S HX  92
LINCOLN*       MOSUNNY   92  65  40 SW5       30.01F HX  94
SPRINGFIELD    PTSUNNY   90  67  46 S6        30.03F HX  93
TAYLORVILLE    MOSUNNY   90  66  45 S7        30.04F HX  92
$$

ILZ033-039-045-046-055>057-062-063-022000-
EAST-CENTRAL ILLINOIS

CITY           SKY/WX    TMP DP  RH WIND       PRES   REMARKS
CHAMPAIGN      MOSUNNY   88  67  49 SW10G20   30.05F HX  91
MATTOON        MOSUNNY   90  65  43 SW9       30.06F HX  92
PARIS*         MOSUNNY   89  69  50 SW9       30.07F HX  94
$$

ILZ079-100>102-022000-
SOUTHWEST ILLINOIS

CITY           SKY/WX    TMP DP  RH WIND       PRES   REMARKS
ALTON          MOSUNNY   88  68  51 S7        30.05F HX  91
BELLEVILLE     MOSUNNY   90  70  51 SE1       30.05F HX  95
CAHOKIA*       MOSUNNY   91  66  43 W6        30.05F HX  93
SPARTA*        SUNNY     87  70  55 S3        30.07F HX  92
$$

ILZ064>066-069>071-074>076-080>082-084>086-088>090-092>094-022000-
SOUTH-CENTRAL ILLINOIS

CITY           SKY/WX    TMP DP  RH WIND       PRES   REMARKS
CARBONDALE     SUNNY     87  68  52 VRB3      30.07F HX  90
CAIRO*         SUNNY     87  74  64 N3        30.07F HX  96
EFFINGHAM*     PTSUNNY   88  63  43 SW6       30.08F HX  89
MARION         MOSUNNY   90  70  51 S8        30.08F HX  95
MT. VERNON     MOSUNNY   90  70  51 S8        30.08F HX  95
CENTRALIA*     MOSUNNY   89  71  53 S7        30.06F HX  95
SALEM*         MOSUNNY   90  67  47 S7        30.07F HX  92
METROPOLIS*    MOSUNNY   91  73  54 CALM      30.07F HX  99
$$

ILZ067-068-072-073-078-083-087-091-022000-
SOUTHEAST ILLINOIS

CITY           SKY/WX    TMP DP  RH WIND       PRES   REMARKS
LAWRENCEVILLE  MOSUNNY   92  67  43 W8        30.07F HX  95
FLORA*         SUNNY     90  66  44 S6        30.07F HX  92
FAIRFIELD*     PTSUNNY   89  69  51 SW7       30.06F HX  93
HARRISBURG*    CLOUDY    90  69  49 SW5       30.07F HX  94
ROBINSON*      SUNNY     89  69  51 SW7       30.08F HX  93
CARMI*         MOSUNNY   89  70  53 SE3       30.07S HX  94
$$

ABBREVIATIONS USED IN REMARKS
   TC - TEMPERATURE IN CELSIUS
  WCI - WIND CHILL INDEX
   HX - HEAT INDEX
  VSB - VISIBILITY
$$




USA.gov is the U.S. government's official web portal to all federal, state and local government web resources and services.